sat.trackr.live / text

‹ back to catalog

STARLINK-3130

NORAD 49437 · 2021-104AF

PAYLOAD ACTIVE UNKNOWN

§ Identity

Operator
Country
US
Launch date
2021-11-13
Launch site
AFETR
Launch vehicle
Mass (kg)
RCS (m²)

Purposes: comms

External: N2YO · Heavens-Above · Gunter

§ Orbital elements

Epoch: 2026-09-20T01:50:35.155392Z

Period
93.85 min
Inclination
53.1627°
Eccentricity
0.0001045
Mean motion
15.34394081 rev/d
Perigee alt
462.0 km
Apogee alt
463.4 km
Semi-major
6,840.9 km
B*
4.8955e-5
RAAN
40.0463°
Arg perigee
87.0278°
Mean anomaly
273.0845°
Rev number
26,848

§ Raw data

STARLINK-31301 49437U 21104AF  26263.07679578  .00001278  00000+0  48955-4 0  99952 49437  53.1627  40.0463 0001045  87.0278 273.0845 15.34394081268487

JSON: /api/v1/satellites/49437 · /tle

For live sub-satellite position, see the globe view (requires WebGL).

§ Visibility from observer

Set your observer location to see the next 7 days of passes ≥ 10°. The values pass through the URL so the page stays shareable.

No JS? Fill the form by hand. The geolocation button needs JavaScript.